Regional Weather Roundup
Issued by NWS Green Bay, WI

Home | Current Version | Previous Version | Text Only | Print | Product List | Glossary On
Versions: 1 2 3 4 5 6 7 8 9 10 11 12 13 14 15 16 17 18 19 20 21 22 23 24 25 26 27 28 29 30 31 32 33 34 35 36 37 38 39 40 41 42 43 44 45 46 47 48 49 50
000
ASUS43 KGRB 191159
RWRGRB

NORTH-CENTRAL AND NORTHEAST WISCONSIN REGIONAL WEATHER ROUNDUP
NATIONAL WEATHER SERVICE GREEN BAY WI
700 AM CDT SUN APR 19 2015

WIZ005-009-010>012-018-019-191300-
NORTH CENTRAL WISCONSIN

CITY           SKY/WX    TMP DP  RH WIND       PRES   REMARKS
IRONWOOD       CLOUDY    43  34  70 SE16G24   29.81F
MANITOWISH WTR NOT AVBL
ARBOR VITAE    NOT AVBL
EAGLE RIVER    NOT AVBL
LAND O LAKES   NOT AVBL
RHINELANDER    CLOUDY    45  20  36 E8        29.90F
PHILLIPS       CLOUDY    42  32  68 SE9       29.83F
ANTIGO         NOT AVBL
TOMAHAWK       NOT AVBL
MERRILL        NOT AVBL
$$

WIZ013-073-191300-
NORTHEAST WISCONSIN

CITY           SKY/WX    TMP DP  RH WIND       PRES   REMARKS
IRON MOUNTAIN  MOCLDY    40  27  59 SE9       29.98S
MARINETTE      MOCLDY    43  28  56 E9        29.99S
$$

WIZ017-030-035>037-045-191300-
CENTRAL WISCONSIN

CITY           SKY/WX    TMP DP  RH WIND       PRES   REMARKS
MEDFORD        NOT AVBL
WAUSAU         CLOUDY    45  25  45 SE12      29.88S
MOSINEE        MOCLDY    45  25  45 E13G20    29.89F
MARSHFIELD     CLOUDY    46  28  49 E10       29.85F
WISC RAPIDS    CLOUDY    47  24  40 E8        29.88S
STEVENS POINT  NOT AVBL
WAUPACA        NOT AVBL
SHAWANO        NOT AVBL
CLINTONVILLE   CLOUDY    45  27  49 E9        29.93F
$$

WIZ038-039-048-051-191300-
FOX VALLEY

CITY           SKY/WX    TMP DP  RH WIND       PRES   REMARKS
NWS GREEN BAY  CLOUDY    47  31  53 SE9       29.95F
APPLETON       CLOUDY    46  28  49 SE14G22   29.92F
OSHKOSH        CLOUDY    49  30  48 SE16      29.89F
FOND DU LAC    CLOUDY    48  29  47 SE14G21   29.90F
$$

WIZ022-050-052-191300-
EAST CENTRAL WISCONSIN

CITY           SKY/WX    TMP DP  RH WIND       PRES   REMARKS
STURGEON BAY   PTCLDY    41  28  60 E9        30.00F
MANITOWOC      NOT AVBL
SHEBOYGAN      CLOUDY    44  31  60 SE5       29.96F
$$

LMZ563-521-522-541>543-191300-
LAKESHORE

STATION/POSITION TIME  TEMP    WIND        PRES    VSBY  WAVE
                       AIR SEA DIR/SP/G                  HT/PER
                 (UTC) (F)     (DEG/KT/KT) (MB)    (MI)  (FT/S)
SHEBOYGAN LKSHOR 1100   44     130/  3/  4 1015.5F
KEWAUNEE LKSHORE 1100   41      90/  4/  6 1014.4F
NORTHPORT PIER   1100   39     110/  7/  9 1016.6S
SISTER BAY LKSHO 1100   42     130/  9/ 13   N/A
CHAMBERS ISLAND  1100   42      60/  4/  7 1016.6S
MENOMINEE LKSHOR 1100   42      50/  9/ 12 1016.3F
$$



USA.gov is the U.S. government's official web portal to all federal, state and local government web resources and services.